TECHNOSAT

Satellite information

Favourite Embed

Satellite Type and Status

PAYLOADIN ORBIT

Key statistics

Satellite TECHNOSAT at a glance.

Uptime

3026

Days in orbit

Revolutions

≈ 15.0

Per day

Orbit

SSO

Sun Synchronous Orbit

Inclination

97.4

Latest

Satellite identification and parameters

Extended collection of information and parameters for TECHNOSAT.

Object identification

Identified? True

Debris? False

Object name: TECHNOSAT

International designator: 2017-042E

Object number (NORAD): 42829

Object ID (CCSDS): 42829

Country: GERMANY (GER)

Current information (Y/N): Y

RCS size: MEDIUM

Orbital parameters

Period: 95.818 minutes

Inclination: 97.4043 deg

SMA: 6936.234 km

Apoapsis: 571.105 km

Periapsis: 545.092 km

RAAN: 101.223 deg

Eccentricy: 0.00187518

Argument of periapsis: 171.1548 deg

Mean anomaly: 189.0012 deg

Mean motion: 15.02855403 rev/day

Mean motion (dot): 0.00006076 rev/day2

B* drag term: 0.0004558518 1/REarth

Two-line elements (TLE)

Creation date: Oct. 26, 2025, 2:54 a.m.

Reference frame: TEME

Reference center: EARTH

Epoch: Oct. 25, 2025, 10:21 p.m. UTC

TLE line 0: 0 TECHNOSAT

TLE line 1: 1 42829U 17042E 25298.93151729 .00006076 00000-0 45585-3 0 9991

TLE line 2: 2 42829 97.4043 101.2230 0018752 171.1548 189.0012 15.02855403451490

Live tracking on map

Real-time ground track for satellite TECHNOSAT.

In-orbit conjunctions

There are no conjunctions computed for TECHNOSAT, at the moment. Check back to stay up to date, as we update our databases every day.

Go to all conjunctions

Associated space launch

Kanopus-V-IK is a small Russian remote sensing satellite for monitoring wildfires. Weighing about 473 kg, it is intended for 5 years of operation in a 510 km sun-synchronous orbit.

TECHNOSAT was lifted into orbit during the mission ‘Soyuz-2.1a/Fregat | Kanopus-V-IK’, on board a Soyuz 2.1a/Fregat-M space rocket.

The launch took place on July 14, 2017, 6:36 a.m. from 31/6.

For more information about the launch, click the button.

Launch to space Soyuz-2.1a/Fregat | Kanopus-V-IK
Soyuz-2.1a/Fregat | Kanopus-V-IK

Agency: N/A

Status: Launch was a Partial Failure

Launch date: July 14, 2017, 6:36 a.m. UTC

Rocket: Soyuz 2.1a/Fregat-M

Launch pad: 31/6

Location: Baikonur Cosmodrome, Republic of Kazakhstan

...

Latest news about this satellite

There are no fresh news available about this satellite. Check back as we update our databases every day.


Newsletter sign-up

Weekly statistics, charts and insights to help you stay on top of the space industry.